DAUB

Biskra Airport

Airport
ICAO code
DAUB
IATA Code
BSK
Summary
ICAO Region
AFI
ICAO Territory
Location

, Biskra

Serving
Biskra
Elevation
289 ft
Coordinates
34° 47' 36" N , 5° 44' 18" E
Metar
DAUB 191100Z 06008KT 9999 FEW036 SCT200 24/05 Q1016

Runways

Designator Length Width Surface Rops
13/31 2886 45 ASP No/No

Airport map

Aerial View

SKYbrary Partners:

Safety knowledge contributed by: